This is the latest recevied weather packets stored in our database for station/object SV8FES. If no packets are shown the sender has not sent any weather packets the latest 10 day(s).
| Time | Temp. | Humidity | Pressure | Rain* | Wind** | Luminosity | Snow |
|---|---|---|---|---|---|---|---|
| 1787825912 | 30° C | 60% | 1014.1 hPa | 0 mm | - | 809 W/m² | - |
| 1787825852 | 29.44° C | 60% | 1014.2 hPa | 0 mm | - | 809 W/m² | - |
| 1787825791 | 29.44° C | 60% | 1014 hPa | 0 mm | - | 810 W/m² | - |
| 1787825732 | 29.44° C | 60% | 1014 hPa | 0 mm | - | 812 W/m² | - |
| 1787825671 | 29.44° C | 60% | 1014.1 hPa | 0 mm | - | 810 W/m² | - |
| 1787825611 | 29.44° C | 60% | 1014 hPa | 0 mm | - | 814 W/m² | - |
| 1787825557 | 29.44° C | 60% | 1014.1 hPa | 0 mm | - | 814 W/m² | - |
| 1787825490 | 30° C | 60% | 1014 hPa | 0 mm | - | 812 W/m² | - |
| 1787825430 | 29.44° C | 60% | 1014 hPa | 0 mm | - | 814 W/m² | - |
| 1787825370 | 30° C | 60% | 1014 hPa | 0 mm | - | 812 W/m² | - |
| 1787825311 | 30° C | 60% | 1014 hPa | 0 mm | - | 812 W/m² | - |
| 1787825250 | 30° C | 60% | 1014.2 hPa | 0 mm | - | 810 W/m² | - |
| 1787825191 | 30° C | 60% | 1014 hPa | 0 mm | - | 810 W/m² | - |
| 1787825132 | 30° C | 60% | 1014.2 hPa | 0 mm | - | 814 W/m² | - |
| 1787825071 | 30° C | 60% | 1014.1 hPa | 0 mm | - | 812 W/m² | - |
| 1787825010 | 30° C | 60% | 1014 hPa | 0 mm | - | 809 W/m² | - |
| 1787824954 | 30.56° C | 60% | 1014 hPa | 0 mm | - | 809 W/m² | - |
| 1787824892 | 30.56° C | 60% | 1014.1 hPa | 0 mm | - | 807 W/m² | - |
| 1787824831 | 30° C | 60% | 1014.1 hPa | 0 mm | - | 807 W/m² | - |
| 1787824770 | 30° C | 61% | 1014.2 hPa | 0 mm | - | 805 W/m² | - |
| 1787824710 | 30° C | 61% | 1014.2 hPa | 0 mm | - | 803 W/m² | - |
| 1787824651 | 30° C | 61% | 1014.2 hPa | 0 mm | - | 798 W/m² | - |
| 1787824592 | 30° C | 61% | 1014.2 hPa | 0 mm | - | 798 W/m² | - |
| 1787824530 | 30° C | 60% | 1014.2 hPa | 0 mm | - | 802 W/m² | - |
| 1787824471 | 30° C | 60% | 1014.3 hPa | 0 mm | - | 800 W/m² | - |
* Rain latest hour (hover to see other rain measurements)
** Current wind speed in m/s (hover to see current wind gust speed)